Location: Asheville, NC
(35.6000°N, 82.5500°W)
Time: 08:56:37
(UTC-05:00)

XW-2C - Visible Passes

Search period start: 18 January 2018 00:00
Search period end: 28 January 2018 00:00
Orbit: 511 x 531 km, 97.5° (Epoch: 18 January)

Date Brightness Start Highest point End Pass type
(mag) Time Alt. Az. Time Alt. Az. Time Alt. Az.
18 Jan ? 06:40:37 10° N 06:44:23 77° WNW 06:48:05 10° SSW visible
18 Jan ? 18:54:05 10° SW 18:56:16 15° W 18:58:29 10° WNW visible
19 Jan ? 06:27:26 10° NNE 06:31:11 69° E 06:34:54 10° S visible
19 Jan ? 18:40:03 10° SSW 18:43:01 21° W 18:45:59 10° NW visible
20 Jan ? 06:14:23 10° NNE 06:17:58 44° E 06:21:32 10° S visible
20 Jan ? 18:26:20 10° SSW 18:29:45 31° W 18:33:11 10° NW visible
21 Jan ? 06:01:26 10° NE 06:04:44 29° E 06:08:00 10° SSE visible
21 Jan ? 18:12:50 10° S 18:16:31 46° W 18:20:14 10° NNW visible
22 Jan ? 05:48:41 10° NE 05:51:29 20° E 05:54:15 10° SE visible
23 Jan ? 05:36:16 10° ENE 05:38:11 13° E 05:40:05 10° SE visible
24 Jan ? 06:55:41 10° N 06:59:16 46° WNW 07:02:50 10° SSW visible
25 Jan ? 06:42:23 10° N 06:46:06 72° WNW 06:49:48 10° SSW visible
25 Jan ? 18:56:03 10° SW 18:58:03 14° W 19:00:02 10° WNW visible
26 Jan ? 06:29:10 10° NNE 06:32:54 74° E 06:36:37 10° S visible
26 Jan ? 18:41:54 10° SW 18:44:46 20° W 18:47:37 10° NW visible
27 Jan ? 06:16:05 10° NNE 06:19:41 47° E 06:23:17 10° S visible
27 Jan ? 18:28:09 10° SSW 18:31:30 29° W 18:34:51 10° NW visible
